Location: Kergrach
(48.3833°N, 4.5167°W)
Time: 19:50:42
(UTC+00:00)

ADEOS - Pass Details

Date: 18 February 2020
Orbit: 793 x 794 km, 98.9° (Epoch: 07 April)

Event Time Altitude Azimuth Distance (km) Brightness Sun altitude
Rises 05:29:22 0° 7° (N) 3,309 6.9 -19.2°
Reaches altitude 10° 05:31:54 10° 358° (N) 2,375 6.1 -18.8°
Maximum altitude 05:36:28 32° 297° (WNW) 1,355 4.3 -18.0°
Enters shadow 05:37:08 30° 282° (WNW) 1,384 4.3 -17.9°
